Regional Weather Roundup
Issued by NWS State College, PA

Home | Current Version | Previous Version | Text Only | Print | Product List | Glossary On
Versions: 1 2 3 4 5 6 7 8 9 10 11 12 13 14 15 16 17 18 19 20 21 22 23 24 25 26 27 28 29 30 31 32 33 34 35 36 37 38 39 40 41 42 43 44 45 46 47 48 49 50
000
ASUS41 KCTP 221910
RWRCTP

REGIONAL WEATHER ROUNDUP
NATIONAL WEATHER SERVICE STATE COLLEGE PA
300 PM EDT FRI AUG 22 2014

Note: "fair" indicates few or no clouds below 12,000 feet with no
significant weather and/or obstructions to visibility.

* = STATION THAT DOES NOT REPORT PRECIPITATION /E.G. RAIN...SNOW...ETC/
    THUNDER OR FOG.

PAZ002>004-007>009-013>016-020>023-029>032-222000-
WESTERN PENNSYLVANIA

CITY           SKY/WX    TMP DP  RH WIND       PRES   REMARKS
ERIE           MOSUNNY   78  68  71 N7        29.98S
MEADVILLE      PTSUNNY   79  67  66 VRB3      30.00F
FRANKLIN*      PTSUNNY   79  66  65 W5        30.01F
NEW CASTLE     NOT AVBL
BEAVER COUNTY  CLOUDY    82  68  61 CALM      29.99F
BUTLER*        PTSUNNY   81  68  65 SW5       30.01F
PITTSBURGH INT PTSUNNY   80  69  69 S5        29.98F
PITTSBURGH     PTSUNNY   78  69  73 E5        29.98F
INDIANA*       MOSUNNY   77  70  78 SW7       30.04F
LATROBE        PTSUNNY   81  72  74 SW7       30.00F
WASHINGTON CO* PTSUNNY   81  70  69 S3        29.99F
$$

PAZ004>006-010>012-017>019-024>028-033>037-041-042-045-046-049>053-222000-
CENTRAL PENNSYLVANIA

CITY           SKY/WX    TMP DP  RH WIND       PRES   REMARKS
BRADFORD       MOSUNNY   78  64  61 SW5       30.01F
DUBOIS         PTSUNNY   73  68  84 CALM      30.01F
CLEARFIELD     LGT RAIN  72  70  93 S7        30.02F
JOHNSTOWN      HVY RAIN  68  67  96 VRB3      30.05F FOG
ALTOONA        PTSUNNY   73  68  84 SE3       30.03F
STATE COLLEGE  PTSUNNY   75  68  78 W8        30.00F
WILLIAMSPORT   MOSUNNY   83  67  58 VRB6      29.95F
SELINSGROVE    CLOUDY    81  69  67 SW5       29.97F
FT INDIANTOWN  CLOUDY    78  70  76 VRB2      30.00F
CAPITAL CITY   LGT RAIN  76  69  79 SE3       29.99F
HARRISBURG     LGT RAIN  78  69  73 S5        29.98F
YORK           CLOUDY    76  69  79 CALM      29.99F
$$

PAZ038>040-043-044-047-048-054-055-060>062-067>071-222000-
EASTERN PENNSYLVANIA

CITY           SKY/WX    TMP DP  RH WIND       PRES   REMARKS
SCRANTON       RAIN      70  66  88 VRB5      30.01F FOG
MOUNT POCONO   FOG       66  62  87 E6        30.06F VSB 1/4
ALLENTOWN      CLOUDY    76  65  68 E5        30.01F
QUAKERTOWN*    CLOUDY    75  66  73 MISG      30.02F
READING        CLOUDY    76  65  68 S3        30.00F
LANCASTER      CLOUDY    74  66  76 SE5       30.01S
COATESVILLE    CLOUDY    73  73 100 CALM      30.02F
POTTSTOWN      CLOUDY    75  66  73 VRB5      30.02S
BLUE BELL      CLOUDY    75  68  78 E6        30.00S
DOYLESTOWN     CLOUDY    73  67  81 VRB3      30.01F
WILLOW GROVE   NOT AVBL
NORTH PHILA    CLOUDY    76  64  66 SE7       30.03S
PHILADELPHIA   CLOUDY    78  67  68 E8        30.00S
$$



USA.gov is the U.S. government's official web portal to all federal, state and local government web resources and services.